User: anonymous   Login
Location: Unspecified
(0.0000°N, 0.0000°E)
Time: 06:26:30
(UTC+00:00)
Language:

OBJECT PJ - Orbit

View from above orbital plane
View from above orbital plane
View from above satellite
View from above satellite

Ground track
Ground track

The orbit data is extracted from the following two-line orbital elements,

1 43597U 98067PJ  20223.75512067  .00220421  31001-4  46151-3 0  9990
2 43597  51.6245 352.6024 0007708 321.8969  38.1494 15.98478499113834
Epoch (UTC): 10 August 2020 18:07:22
Eccentricity: 0.0007708
inclination: 51.6245°
perigee height: 273 km
apogee height: 284 km
right ascension of ascending node: 352.6024°
argument of perigee: 321.8969°
revolutions per day: 15.98478499
mean anomaly at epoch: 38.1494°
orbit number at epoch: 11383

The dashed part of the orbit path shows where the satellite is in the earth's shadow,  

DLR